Regional Weather Roundup
Issued by NWS

Home | Current Version | Previous Version | Graphics & Text | Print | Product List | Glossary On
Versions: 1 2 3 4 5 6 7 8 9 10 11 12 13 14 15 16 17 18 19 20 21 22 23 24 25 26 27 28 29 30 31 32 33 34 35 36 37 38 39 40 41 42 43 44 45 46 47 48 49 50
000
ASUS43 KOAX 261210
RWRNE

WEATHER ROUNDUP FOR NEBRASKA
NATIONAL WEATHER SERVICE OMAHA NE
700 AM CDT SUN APR 26 2015

NOTES: SATELLITE DATA IS BEING USED TO AUGMENT CLOUD COVER ABOVE
       12000 FEET.
       "FAIR" INDICATES FEW OR NO CLOUDS BELOW 12,000 FEET WITH NO
       SIGNIFICANT WEATHER AND/OR OBSTRUCTIONS TO VISIBILITY.

  * THESE STATIONS DO NOT REPORT WEATHER SUCH AS RAIN...SNOW OR FOG.

NEZ001>004-019>022-054>056-261300-
NEBRASKA PANHANDLE

CITY           SKY/WX    TMP DP  RH WIND       PRES   REMARKS
SCOTTSBLUFF    LGT RAIN  48  48 100 E14       29.84R
6HR MIN TEMP:  48; 6HR MAX TEMP:  50; 6HR PCP:  0.08;

ALLIANCE       CLOUDY    46  45  96 SE17      29.86R FOG
6HR MIN TEMP:  46; 6HR MAX TEMP:  51; 6HR PCP: TRACE;

CHADRON        CLOUDY    47  46  97 NE9       29.87R FOG
6HR MIN TEMP:  47; 6HR MAX TEMP:  49; 6HR PCP:  0.01;

KIMBALL        RAIN      45  44  95 E9        29.82S
SIDNEY         LGT RAIN  45  44  97 SE12      29.86R FOG
6HR MIN TEMP:  45; 6HR MAX TEMP:  48; 6HR PCP:  0.90;

$$

NEZ057>060-069>072-079>082-261300-
SOUTHWEST NEBRASKA

CITY           SKY/WX    TMP DP  RH WIND       PRES   REMARKS
IMPERIAL       CLOUDY    44  42  93 E15       29.87R FOG
6HR MIN TEMP:  44; 6HR MAX TEMP:  48; 6HR PCP:  0.01;

LEXINGTON      CLOUDY    45  43  93 E10       29.94R FOG
MCCOOK         CLOUDY    45  43  93 E14       29.90R FOG
6HR MIN TEMP:  45; 6HR MAX TEMP:  48;

OGALLALA       CLOUDY    44  43  97 E9        29.89R FOG
$$

NEZ005>010-023>029-035>040-094-261300-
NORTH CENTRAL NEBRASKA

CITY           SKY/WX    TMP DP  RH WIND       PRES   REMARKS
VALENTINE      CLOUDY    45  40  82 SE7       29.96R
6HR MIN TEMP:  44; 6HR MAX TEMP:  52;

AINSWORTH      CLOUDY    43  42  95 S6        29.97R FOG
BROKEN BOW     CLOUDY    46  42  86 SE8       29.95R
6HR MIN TEMP:  46; 6HR MAX TEMP:  48;

O`NEILL        CLOUDY    46  40  78 E6        29.99R
ORD            CLOUDY    44  39  82 E6        29.95R
6HR MIN TEMP:  42; 6HR MAX TEMP:  48;

THEDFORD       CLOUDY    44  42  93 E10       29.94S FOG
$$

NEZ041-046>049-061>064-073>077-083>087-261300-
SOUTH CENTRAL NEBRASKA

CITY           SKY/WX    TMP DP  RH WIND       PRES   REMARKS
GRAND ISLAND   CLOUDY    45  40  82 E14       29.96R
6HR MIN TEMP:  45; 6HR MAX TEMP:  48;

AURORA         CLOUDY    46  41  85 E15G22    29.95R
HASTINGS       CLOUDY    45  41  86 E9        29.93R
6HR MIN TEMP:  45; 6HR MAX TEMP:  47;

HEBRON         CLOUDY    46  44  92 NE10      29.92R FOG
HOLDREGE       CLOUDY    44  42  91 E13       29.94R
KEARNEY *      CLOUDY    45  39  81 E12       29.95R
YORK           CLOUDY    45  41  87 E10       29.95R
$$

NEZ011>018-030>034-042>045-261300-
NORTHEAST NEBRASKA

CITY           SKY/WX    TMP DP  RH WIND       PRES   REMARKS
NORFOLK        CLEAR     40  37  89 E3        29.99R
6HR MIN TEMP:  40; 6HR MAX TEMP:  45;

ALBION         CLEAR     40  37  88 E8        29.97R FOG     WCI  34
BLAIR          CLEAR     41  37  86 NE10      29.98R
COLUMBUS *     CLEAR     41  34  75 E9        29.99R
FREMONT        CLEAR     42  39  88 NE3       29.99R
TEKAMAH        CLEAR     37  36  96 N7        30.00R FOG     WCI  32
6HR MIN TEMP:  37; 6HR MAX TEMP:  47;

WAYNE          CLEAR     38  37  95 CALM      30.01R FOG
$$

NEZ050>053-065>068-078-088>093-261300-
SOUTHEAST NEBRASKA

CITY           SKY/WX    TMP DP  RH WIND       PRES   REMARKS
LINCOLN        CLOUDY    45  39  79 E12       29.98R
6HR MIN TEMP:  44; 6HR MAX TEMP:  50;

OMAHA EPPLEY   PTCLDY    41  38  89 N5        29.99R
6HR MIN TEMP:  40; 6HR MAX TEMP:  49;

BEATRICE       CLOUDY    46  43  90 NE9       29.95R
FALLS CITY     CLOUDY    46  41  82 NE12      29.94R
6HR MIN TEMP:  46; 6HR MAX TEMP:  49;

NEBRASKA CITY  PTCLDY    42  39  91 NE6       29.96R
PLATTSMOUTH    CLEAR     40  37  89 NE7       29.97R
$$

NEZ044-045-051>053-067-261300-
OMAHA AREA

CITY           SKY/WX    TMP DP  RH WIND       PRES   REMARKS
OMAHA EPPLEY   PTCLDY    41  38  89 N5        29.99R
6HR MIN TEMP:  40; 6HR MAX TEMP:  49;

BLAIR          CLEAR     41  37  86 NE10      29.98R
FREMONT        CLEAR     42  39  88 NE3       29.99R
MILLARD        CLEAR     41  38  88 CALM      29.98R
OFFUTT AFB     CLEAR     41  38  90 NE7       29.98R
PLATTSMOUTH    CLEAR     40  37  89 NE7       29.97R
WAHOO          FAIR      41  37  87 NE6       29.98R
$$


USA.gov is the U.S. government's official web portal to all federal, state and local government web resources and services.